• In Deutschland
  • Länderverzeichnis
  • Für 7 Tage
  • Wassertemperatur
  • Satellitenkarten
  • Wetterkarte
  • Widgets
  • user-avatar
    Anmelden

    Stündliche Wetter Aran

    Heute, 24 April, Dienstag

    Zeit Temperatur Niederschläge Wind Luftdruck Luftfeuchtigkeit
    00:00 +15°C° 0 mm 2 m/S 756 mmHg 53%
    01:00 +14°C° 0 mm 2 m/S 756 mmHg 52%
    02:00 +14°C° 0 mm 2 m/S 757 mmHg 51%
    03:00 +13°C° 0 mm 1 m/S 757 mmHg 48%
    04:00 +13°C° 0 mm 1 m/S 757 mmHg 48%
    05:00 +13°C° 0 mm 1 m/S 757 mmHg 48%
    06:00 +14°C° 0 mm 1 m/S 758 mmHg 49%
    07:00 +15°C° 0 mm 2 m/S 758 mmHg 43%
    08:00 +17°C° 0 mm 2 m/S 758 mmHg 38%
    09:00 +19°C° 0 mm 3 m/S 758 mmHg 33%
    10:00 +20°C° 0 mm 3 m/S 758 mmHg 32%
    11:00 +21°C° 0 mm 3 m/S 758 mmHg 32%
    12:00 +21°C° 0 mm 3 m/S 758 mmHg 31%
    13:00 +22°C° 0 mm 3 m/S 758 mmHg 32%
    14:00 +22°C° 0 mm 3 m/S 758 mmHg 32%
    15:00 +22°C° 0 mm 3 m/S 758 mmHg 33%
    16:00 +21°C° 0 mm 4 m/S 759 mmHg 39%
    17:00 +20°C° 0 mm 4 m/S 759 mmHg 44%
    18:00 +19°C° 0 mm 5 m/S 760 mmHg 50%
    19:00 +17°C° 0 mm 5 m/S 761 mmHg 55%
    20:00 +15°C° 0 mm 5 m/S 761 mmHg 61%
    21:00 +14°C° 0 mm 5 m/S 762 mmHg 67%
    22:00 +14°C° 0 mm 4 m/S 762 mmHg 70%
    23:00 +13°C° 0 mm 4 m/S 762 mmHg 72%

    Morgen, 25 April, Mittwoch

    Zeit Temperatur Niederschläge Wind Luftdruck Luftfeuchtigkeit
    00:00 +12°C° 0 mm 3 m/S 763 mmHg 75%
    01:00 +12°C° 0 mm 3 m/S 763 mmHg 77%
    02:00 +13°C° 0 mm 2 m/S 763 mmHg 78%
    03:00 +12°C° 0 mm 1 m/S 763 mmHg 79%
    04:00 +12°C° 0 mm 1 m/S 763 mmHg 79%
    05:00 +13°C° 0 mm 1 m/S 763 mmHg 78%
    06:00 +13°C° 0 mm 1 m/S 762 mmHg 78%
    07:00 +14°C° 0 mm 1 m/S 762 mmHg 72%
    08:00 +15°C° 0 mm 1 m/S 762 mmHg 66%
    09:00 +17°C° 0 mm 2 m/S 761 mmHg 60%
    10:00 +18°C° 0 mm 2 m/S 761 mmHg 55%
    11:00 +19°C° 0 mm 2 m/S 760 mmHg 50%
    12:00 +21°C° 0 mm 2 m/S 760 mmHg 45%
    13:00 +23°C° 0 mm 2 m/S 759 mmHg 43%
    14:00 +23°C° 0 mm 1 m/S 759 mmHg 41%
    15:00 +24°C° 0 mm 1 m/S 758 mmHg 39%
    16:00 +24°C° 0 mm 1 m/S 758 mmHg 42%
    17:00 +23°C° 0 mm 2 m/S 758 mmHg 45%
    18:00 +23°C° 0 mm 2 m/S 758 mmHg 48%
    19:00 +20°C° 0 mm 2 m/S 758 mmHg 52%
    20:00 +19°C° 0 mm 2 m/S 759 mmHg 56%
    21:00 +18°C° 0 mm 2 m/S 760 mmHg 60%
    22:00 +17°C° 0 mm 2 m/S 760 mmHg 62%
    23:00 +17°C° 0 mm 2 m/S 760 mmHg 65%

    übermorgen, 26 April, Donnerstag

    Zeit Temperatur Niederschläge Wind Luftdruck Luftfeuchtigkeit
    00:00 +16°C° 0 mm 1 m/S 760 mmHg 67%
    01:00 +15°C° 0 mm 1 m/S 760 mmHg 70%
    02:00 +15°C° 0 mm 1 m/S 760 mmHg 72%
    03:00 +13°C° 0 mm 0 m/S 760 mmHg 74%
    04:00 +15°C° 0 mm 1 m/S 760 mmHg 73%
    05:00 +15°C° 0 mm 1 m/S 760 mmHg 72%
    06:00 +16°C° 0 mm 1 m/S 760 mmHg 71%
    07:00 +18°C° 0 mm 1 m/S 760 mmHg 63%
    08:00 +19°C° 0 mm 2 m/S 760 mmHg 54%
    09:00 +21°C° 0 mm 2 m/S 760 mmHg 46%
    10:00 +24°C° 0 mm 2 m/S 759 mmHg 41%
    11:00 +25°C° 0 mm 2 m/S 759 mmHg 36%
    12:00 +26°C° 0 mm 1 m/S 759 mmHg 31%
    13:00 +27°C° 0 mm 2 m/S 758 mmHg 30%
    14:00 +27°C° 0 mm 2 m/S 758 mmHg 29%
    15:00 +28°C° 0 mm 2 m/S 758 mmHg 28%
    16:00 +27°C° 0 mm 2 m/S 758 mmHg 32%
    17:00 +26°C° 0 mm 2 m/S 758 mmHg 36%
    18:00 +25°C° 0 mm 3 m/S 758 mmHg 40%
    19:00 +24°C° 0 mm 3 m/S 759 mmHg 44%
    20:00 +22°C° 0 mm 3 m/S 760 mmHg 47%
    21:00 +20°C° 0 mm 3 m/S 760 mmHg 51%
    22:00 +20°C° 0 mm 3 m/S 760 mmHg 55%
    23:00 +19°C° 0 mm 2 m/S 760 mmHg 58%

    27 April, Freitag

    Zeit Temperatur Niederschläge Wind Luftdruck Luftfeuchtigkeit
    00:00 +18°C° 0 mm 2 m/S 760 mmHg 62%
    01:00 +18°C° 0 mm 2 m/S 760 mmHg 64%
    02:00 +17°C° 0 mm 2 m/S 760 mmHg 65%
    03:00 +18°C° 0 mm 1 m/S 760 mmHg 67%
    04:00 +18°C° 0 mm 1 m/S 760 mmHg 66%
    05:00 +18°C° 0 mm 1 m/S 760 mmHg 65%
    06:00 +18°C° 0 mm 1 m/S 760 mmHg 65%
    07:00 +20°C° 0 mm 1 m/S 760 mmHg 59%
    08:00 +22°C° 0 mm 1 m/S 760 mmHg 54%
    09:00 +23°C° 0 mm 1 m/S 760 mmHg 48%
    10:00 +25°C° 0 mm 2 m/S 759 mmHg 44%
    11:00 +26°C° 0 mm 2 m/S 758 mmHg 40%
    12:00 +27°C° 0 mm 2 m/S 758 mmHg 37%
    13:00 +27°C° 0 mm 3 m/S 757 mmHg 36%
    14:00 +28°C° 0 mm 3 m/S 757 mmHg 35%
    15:00 +29°C° 0 mm 3 m/S 757 mmHg 34%
    16:00 +28°C° 0 mm 3 m/S 757 mmHg 38%
    17:00 +27°C° 0 mm 3 m/S 757 mmHg 41%
    18:00 +26°C° 0 mm 3 m/S 757 mmHg 45%
    19:00 +25°C° 0 mm 2 m/S 757 mmHg 46%
    20:00 +24°C° 0 mm 2 m/S 757 mmHg 46%
    21:00 +23°C° 0 mm 2 m/S 758 mmHg 46%
    22:00 +21°C° 0 mm 2 m/S 757 mmHg 47%
    23:00 +22°C° 0 mm 1 m/S 757 mmHg 47%

    28 April, Samstag

    Zeit Temperatur Niederschläge Wind Luftdruck Luftfeuchtigkeit
    00:00 +21°C° 0 mm 1 m/S 756 mmHg 48%
    01:00 +20°C° 0 mm 2 m/S 756 mmHg 48%
    02:00 +19°C° 0 mm 2 m/S 756 mmHg 49%
    03:00 +19°C° 0 mm 3 m/S 756 mmHg 49%
    04:00 +19°C° 0 mm 3 m/S 756 mmHg 50%
    05:00 +19°C° 0 mm 3 m/S 756 mmHg 51%
    06:00 +19°C° 0 mm 3 m/S 756 mmHg 53%
    07:00 +21°C° 0 mm 3 m/S 756 mmHg 49%
    08:00 +24°C° 0 mm 3 m/S 756 mmHg 45%
    09:00 +26°C° 0 mm 4 m/S 756 mmHg 41%
    10:00 +27°C° 0 mm 3 m/S 756 mmHg 39%
    11:00 +28°C° 0 mm 3 m/S 756 mmHg 37%
    12:00 +29°C° 0 mm 2 m/S 756 mmHg 35%
    13:00 +29°C° 0 mm 2 m/S 756 mmHg 34%
    14:00 +29°C° 0 mm 2 m/S 756 mmHg 33%
    15:00 +30°C° 0 mm 2 m/S 755 mmHg 31%
    16:00 +29°C° 0 mm 2 m/S 756 mmHg 35%
    17:00 +28°C° 0 mm 2 m/S 756 mmHg 39%
    18:00 +27°C° 0 mm 3 m/S 757 mmHg 43%
    19:00 +26°C° 0 mm 3 m/S 757 mmHg 45%
    20:00 +25°C° 0 mm 3 m/S 758 mmHg 48%
    21:00 +24°C° 0 mm 3 m/S 759 mmHg 50%
    22:00 +24°C° 0,1 mm 3 m/S 759 mmHg 52%
    23:00 +22°C° 0,1 mm 3 m/S 759 mmHg 54%

    29 April, Sonntag

    Zeit Temperatur Niederschläge Wind Luftdruck Luftfeuchtigkeit
    00:00 +22°C° 0,1 mm 3 m/S 759 mmHg 56%
    01:00 +21°C° 0 mm 3 m/S 759 mmHg 58%
    02:00 +21°C° 0 mm 2 m/S 759 mmHg 59%
    03:00 +21°C° 0 mm 2 m/S 759 mmHg 60%
    04:00 +22°C° 0 mm 1 m/S 759 mmHg 60%
    05:00 +22°C° 0 mm 1 m/S 760 mmHg 60%
    06:00 +22°C° 0 mm 1 m/S 760 mmHg 60%
    07:00 +23°C° 0 mm 1 m/S 760 mmHg 55%
    08:00 +24°C° 0 mm 1 m/S 760 mmHg 50%
    09:00 +26°C° 0 mm 1 m/S 760 mmHg 45%
    10:00 +27°C° 0 mm 2 m/S 760 mmHg 41%
    11:00 +28°C° 0 mm 2 m/S 760 mmHg 37%
    12:00 +29°C° 0 mm 3 m/S 760 mmHg 34%
    13:00 +29°C° 0 mm 4 m/S 759 mmHg 34%
    14:00 +30°C° 0 mm 4 m/S 759 mmHg 34%
    15:00 +30°C° 0 mm 5 m/S 759 mmHg 34%
    16:00 +29°C° 0 mm 5 m/S 759 mmHg 39%
    17:00 +28°C° 0 mm 5 m/S 759 mmHg 43%
    18:00 +27°C° 0 mm 6 m/S 759 mmHg 48%
    19:00 +25°C° 0,1 mm 5 m/S 760 mmHg 53%
    20:00 +23°C° 0,1 mm 5 m/S 760 mmHg 59%
    21:00 +21°C° 0,1 mm 5 m/S 760 mmHg 64%
    22:00 +20°C° 0 mm 5 m/S 760 mmHg 65%
    23:00 +20°C° 0 mm 5 m/S 761 mmHg 67%
    Mehr zeigen